TIMESTAMP,CO2_1_1_1,H2O_1_1_1,TAU_1_1_1,TAU_SSITC_TEST_1_1_1,H_1_1_1,H_SSITC_TEST_1_1_1,LE_1_1_1,LE_SSITC_TEST_1_1_1,FC_1_1_1,FC_SSITC_TEST_1_1_1,WD_0_0_1,WS_0_0_1,WS_MAX_0_0_1,U_SIGMA_0_0_1,V_SIGMA_0_0_1,W_SIGMA_0_0_1,USTAR_0_0_1,MO_LENGTH_0_0_1,ZL_0_0_1,FETCH_MAX_0_0_1,FETCH_70_0_0_1,FETCH_80_0_0_1,FETCH_90_0_0_1,PA_0_0_1,RH_0_0_1,TA_0_0_1,VPD_0_0_1,T_SONIC_0_0_1,T_SONIC_SIGMA_0_0_1
[yyyymmddHHMMSS],[mmolCO2 mol-1],[mmolH2O mol-1],[kg m-1 s-2],[#],[W m-2],[#],[W m-2],[#],[umolCO2 m-2 s-1],[#],[Decimal degrees],[m s-1],[m s-1],[m s-1],[m s-1],[m s-1],[m s-1],[m],[#],[m],[m],[m],[m],[kPa],[%],[deg C],[hPa],[deg C],[deg C]
20240628003000,410.04722147960729,13.876528161567936,0.41282438185781639,0,-11.766571728122232,1,-80.730320832634149,2,-1.1445358217214170,1,183.40710577572568,3.1599863617183019,8.1380564257528523,1.2612088171623803,1.1620981258599192,0.82181183491842147,0.60615514605734711,1588.9087556116860,1.1957892442153183E-002,98.153100773912541,179.45517254061312,214.76200804051635,268.85654947976639,94.673112460583710,60.500666666666667,18.862666666666655,8.5793337177434665,19.638628403263624,0.19819036637764137
20240628010000,412.60207112293580,13.990001006379488,0.22399462189751973,0,-20.078179373840211,0,10.443408242653376,2,-8.9938020122806522E-002,0,176.43283223564703,2.0920452627681736,6.1055238783999499,0.90883416393895800,0.73475641563106919,0.55758144946344745,0.44600173166502527,370.91445780612275,5.1224748995714026E-002,104.73153830792454,191.48265443782824,229.15583200974359,286.87590905595130,94.669714151717486,63.616333333333330,18.190333333333342,7.5767528501415544,19.068305145458680,0.20098283731129865
20240628013000,415.02378176121653,14.129449087526588,9.3229034121235024E-002,0,-20.341113342660673,0,16.512374570767800,1,-0.72931659255218351,1,161.03106053048532,1.8884466623073497,4.5963500248133551,0.66276951580257237,0.59589804744407937,0.38376885232851277,0.28745331444454136,98.002921382665022,0.19387177169762168,99.369470944193040,181.67908515325425,217.42346344264112,272.18837582343957,94.645001258813224,66.968666666666664,17.528000000000020,6.5977194109225277,18.459147813208233,0.24417629638156949
20240628020000,418.82470465267500,14.392491831995255,0.10851750233483691,0,-37.228292676387255,0,-30.483575906741397,1,2.2191841671527555,1,144.52475524712253,2.0668486128741321,4.7654077912572212,0.66201903338292700,0.53799599112930518,0.37101037433349054,0.30983448737194474,67.045556570244685,0.28338939926754730,108.40513695854334,198.19916440535621,237.19377902029299,296.93846489566863,94.623084429470495,71.049666666666667,16.880999999999972,5.5506148771955059,17.883179026285802,0.25005620449756905
20240628023000,422.24209515541708,14.510632468631529,0.15801293102097769,0,-48.989524355119968,0,-9999.,-9999.,6.1305366118305712E-002,0,160.69308571412279,2.1153030911779367,5.3843599458056266,0.75720500246017874,0.59505670807073141,0.46497572456596814,0.37363937653661705,89.365674362448132,0.21260959686758529,105.11695864122269,192.18732573060788,229.99914357164133,287.93163506045693,94.640222974609387,73.143333333333331,16.555333333333351,5.0437776966668437,17.583819130791653,0.22417852229278512
20240628030000,423.60229672615816,14.713676533215553,0.18710246012105788,0,-49.702632690793116,0,-9999.,-9999.,0.39625966926362777,0,151.61348563467641,2.4140411830609727,5.9713732805917408,0.89631478410754850,0.74131386841964575,0.54692394252112286,0.40653972251808823,113.46366023094409,0.16745449566255288,98.763333575250101,180.57087272522796,216.09721620769710,270.52807166351170,94.639190113281245,74.558666666666667,16.472333333333324,4.7528097889366929,17.534144367641886,0.21477889438160838
20240628033000,423.63731159266433,14.856077065406350,0.20764045931234953,0,-54.160184691857388,0,-9999.,-9999.,-1.3529901312559758E-002,2,145.80375325049252,2.1678151506339156,5.7585944966535507,0.86474485208532836,0.69288320912730006,0.52240518731626162,0.42812647431598122,121.58981986976124,0.15626308206025397,106.78409780992287,195.23538783775857,233.64689542797606,292.49818752660610,94.616471624565989,76.623333333333335,16.190999999999974,4.2895221481285812,17.251958321465395,0.24327762751853393
20240628040000,426.16228787868539,14.844272617576630,0.20766950468249931,0,-52.593773642818810,0,-9999.,-9999.,-4.6295728791336650E-002,2,151.21029471676434,2.1376204041121420,6.7239121659419299,0.85067121611984364,0.68365586006610790,0.51813285244033125,0.42792005544216233,125.02705117075608,0.15196711289343848,107.44645935217470,196.44639598637386,235.09616288607171,294.31249840780907,94.614313075520840,78.164666666666662,15.866333333333330,3.9244751867389871,16.947280405680374,0.20653587097267317
20240628043000,425.94574155372464,14.833421725254379,0.35095320725915746,0,-60.164512705312340,0,-9999.,-9999.,-1.1285186672157388,1,153.84436641419362,2.7205907878526503,7.2464026831033568,1.2268464903954168,0.94369065849887568,0.73795558224315749,0.55629133900207473,240.15763529605334,7.9114703043181731E-002,99.878626325384317,182.60998357685196,218.53751110091270,273.58303129389128,94.638623134548624,77.742333333333335,15.943666666666672,4.0202059274767636,17.006734174092628,0.18961730723171547
20240628050000,425.05578556236196,14.754377996849216,0.45956230437865231,0,-45.743764014600856,0,-9999.,-9999.,3.4902804953909905E-002,2,152.29131634192140,2.7670280487382177,8.5935421572365271,1.2227301807677704,0.97225123990379048,0.74176891847832127,0.63636315445527702,472.90925648846905,4.0176840988654400E-002,110.76537325029261,202.51442910543034,242.35804873229884,303.40351776056281,94.660498262586799,77.928333333333327,15.826333333333309,3.9568165146618823,16.857907074822378,0.16547534932912364
20240628053000,425.05991210884491,14.431680631219498,0.45121459247155155,0,-40.083030598629549,0,-9999.,-9999.,0.34447371678356153,0,144.20593134487765,2.8059302689344725,8.0142850240164112,1.2572354392563194,0.98740410454417993,0.71808904463234469,0.63026167503204034,524.20229619473560,3.6245548975889455E-002,112.80516326692947,206.24381581350139,246.82117212320409,308.99081863248819,94.638835628038208,77.691333333333333,15.525000000000034,3.9228691003153155,16.532450842963328,0.15421691354258227
20240628060000,426.16557018842150,14.231544980914730,0.54430680784543617,0,-42.796748565288347,0,-9999.,-9999.,2.0409243094359972,0,147.77189483094494,2.9229494779411476,8.0918471791877060,1.3566891221028654,1.0288578391832974,0.76895719652926064,0.69192934186735755,649.69358140363022,2.9244555500997037E-002,115.07541911176490,210.39456755882537,251.78856184556898,315.20940111298125,94.655290842664940,77.515666666666661,15.345333333333315,3.9084445236095324,16.338585127936540,0.13146648710762415
20240628063000,428.10855475140880,14.085733923392988,0.37716734098864169,0,-34.463735739498688,0,-9999.,-9999.,-0.69724645154975229,2,146.16956469225698,2.5070371634226198,6.9153222095391529,1.0990831343148444,0.83875105564489028,0.67313479532825948,0.57575862259274657,464.78870869989322,4.0878789962748435E-002,110.50085235877712,202.03080055112872,241.77926887325609,302.67895405755780,94.647765675347216,77.847666666666669,15.117333333333306,3.7947240837777962,16.092682969835096,0.12174426343327407
20240628070000,430.25050535475805,14.020787387626807,0.50042243574208656,0,-26.413443206591669,0,-9999.,-9999.,0.19521023127631942,0,137.37042656557688,2.8778715443296075,9.0168083569424677,1.2506283973902563,0.92499963518486661,0.73207242243322002,0.66314198593818818,926.17846799015035,2.0514404789857478E-002,115.69028277843323,211.51873444220359,253.13390248874447,316.89360795430866,94.589873708767385,78.525666666666666,14.901333333333355,3.6277853823606736,15.885980830722474,0.11861077599698265
20240628073000,432.24675310825472,13.988445687827229,0.66816192479640046,0,-26.581819626270601,0,-9999.,-9999.,0.80360356945858724,0,140.72662491339338,3.4198423062280430,9.3944656299551355,1.4982785396501623,1.1373206460780381,0.91872415233422622,0.76616977759203508,1418.7890771082511,1.3391701632440980E-002,108.28462734340017,197.97883439430407,236.93010027013358,296.60837038972778,94.538545510840336,79.442999999999998,14.677000000000021,3.4229373982339442,15.665538619500865,8.4430142508652814E-002
20240628080000,433.88136791668899,13.941340392328113,0.65117508123579304,0,-22.376968872604319,0,-9999.,-9999.,-0.11410066168055233,2,147.38605327675143,3.1520670622451461,8.1692498083150564,1.4825157549514576,1.1421447628836086,0.87490972659708899,0.75632994476455606,1621.0482074249137,1.1720811209052259E-002,111.44314004509637,203.75360296896389,243.84102335752766,305.26002601517854,94.520260755642369,79.566666666666663,14.597666666666669,3.3849633976807629,15.589924594455340,7.4082070560476887E-002
20240628083000,435.23914758294069,13.959398548865030,0.67853879757277924,0,-25.140684071342069,0,-9999.,-9999.,0.80742308987650291,0,136.44682736132103,3.2546317940561895,8.8758129628796141,1.5069050796501762,1.1316930045511242,0.79841945112510015,0.77204352823362965,1534.1359726333744,1.2384821384108560E-002,121.89431251280507,222.86167947043344,266.70851065895215,333.88740656180426,94.475211411675346,80.405666666666662,14.447999999999979,3.2147328877566701,15.447424228244358,7.1368839980177609E-002
20240628090000,435.31405778152572,13.928401856432016,0.49103791162827631,0,-21.018023764463567,0,-9999.,-9999.,0.79810360103574074,0,136.78889839477358,3.0464404061423536,9.7499123733842126,1.2837929157747949,1.0097822478534060,0.76787419701672266,0.65686470011356379,1129.9197533898448,1.6815353429302002E-002,110.51050901447070,202.04845599756894,241.80039793338111,302.70540513356883,94.444301806206610,80.231999999999999,14.442000000000007,3.2419673900769386,15.433732799953930,7.0674416076279820E-002
20240628093000,435.12829438302441,13.740757549347672,0.56326006673564766,0,-23.142341996135780,0,-9999.,-9999.,1.6221236911365937,0,139.40900711554275,3.3570788803018385,8.9160397562479368,1.3856540139171480,1.0601679866026290,0.83514037549836495,0.70356679531928346,1260.7220475637343,1.5070728743672167E-002,109.16705218122068,199.59218843280726,238.86087299785089,299.02546873100323,94.417876015794306,79.215999999999994,14.425000000000011,3.4048470468603340,15.409389980354547,6.7861503592876876E-002
20240628100000,435.24192580434737,13.731165039326891,0.54667898725038888,0,-25.858109446147193,0,-9999.,-9999.,1.3477059835675069,0,145.13782315025566,3.1106590964052017,7.7516750116011233,1.2802974628735990,1.1346544059063046,0.83242588895556802,0.69322571995692983,1079.1405126863185,1.7606604308370421E-002,108.16286217469533,197.75620883090289,236.66367433010464,296.27483672806375,94.399810616970484,79.031333333333336,14.447333333333347,3.4400637935742999,15.427093235439770,7.3046682138222352E-002
20240628103000,435.71996104622031,13.720393458536780,0.62278570255832011,0,-25.798797685377160,0,-9999.,-9999.,0.43964727060621722,0,147.19378185525011,3.1574533025282179,8.6170495501812905,1.4087783783694099,1.0565360944801101,0.81320862790849924,0.73987296250722256,1314.9620420710344,1.4449086279384495E-002,116.09647757538272,212.26138808021324,254.02266921705623,318.00623843325837,94.397234831380217,79.141000000000005,14.413333333333355,3.4145562250335684,15.394909534030489,7.6656159779765864E-002
20240628110000,437.47688021439308,13.848289843080224,0.43378443604646710,0,-33.672999165968861,0,-9999.,-9999.,1.6006523022735617,1,145.23298158873081,2.5306271735073622,7.2662717513904491,1.1868785535759550,0.99333075201313759,0.72083398793613873,0.61723616571264528,584.82470410986855,3.2488367653549996E-002,110.59813076633816,202.20865650550712,241.99211702560245,302.94541468681490,94.368405135850679,81.586333333333329,14.081999999999994,2.9502722949185975,15.116132116529684,0.12628950223054322
20240628113000,436.40671222540942,13.887590060698139,0.50228003748897854,0,-30.187954010468257,0,-9999.,-9999.,0.40527895477437170,2,155.92794252859622,3.5644698819842837,9.0421306679411071,1.4907631723594990,1.2579503949115647,0.91048713984131280,0.66431323224735095,813.08539560850090,2.3367779205750810E-002,97.304778751138969,177.90416932455074,212.90585332263842,266.53286403231471,94.336359922309029,81.730000000000004,14.093333333333362,2.9294057557555062,15.154511856079125,0.12259744801428243
20240628120000,435.39907294622344,13.796685196345678,0.70520237615834258,0,-33.896181393201552,0,-9999.,-9999.,-2.2658694782394799,1,144.21888614151612,3.5349066743312894,9.6244177418333337,1.5878352857286671,1.2430267341089156,0.93377303130782463,0.78727900718865895,1204.8757218049846,1.5769261224333350E-002,109.23574509044032,199.71778097934046,239.01117519926720,299.21362925166841,94.294672519097219,81.275000000000006,14.071333333333314,2.9980801500639087,15.103070504082552,0.13834344444645186
20240628123000,433.82390289064290,13.267393515375616,0.67498820681244232,0,-20.471080501345863,0,-9999.,-9999.,1.2339465607963715,0,137.92711563781975,3.7591484693673043,10.677289237010594,1.6479659886106628,1.3285190870300769,0.94492332361291098,0.77064062839542324,1870.5922400070078,1.0157210958989554E-002,106.37000162161017,194.47828793631749,232.74084021196401,291.36391391258223,94.262679690972234,76.789000000000001,14.338666666666654,3.7812614862762257,15.267952264573864,6.8448425751620703E-002
20240628130000,432.90981169028476,12.969743082561662,0.95170666338924625,0,-22.282104244596862,0,-9999.,-9999.,0.12012277627813414,2,139.81713741505206,3.7838634898176662,11.389232742954098,1.8096254318986986,1.3773139047615883,1.0181894447315827,0.91533381845729500,2879.1290092045033,6.5992180062989453E-003,114.98882443538086,210.23624487243984,251.59909002614381,314.97220487860494,94.243147482421875,74.387000000000000,14.475999999999999,4.2097958912387252,15.369644960191522,7.4913301768877574E-002
20240628133000,433.35741599627613,13.103206945833891,0.79068388132391265,0,-58.270544620266200,0,-9999.,-9999.,1.6354784976250418,1,140.55895206348910,3.6419592426907310,11.433899734013503,1.5967687803481949,1.2437011243084684,0.95169628488331870,0.83389517454336859,832.45364953063995,2.2824093582522843E-002,112.65367638305889,205.96684947552239,246.48971415483300,308.57587258832092,94.239680749059616,76.691000000000003,14.162333333333322,3.7541111489811967,15.104202591790113,0.23593443851185802
20240628140000,435.57007991247809,13.683630816331796,0.40119389793565241,0,-65.480043469728400,0,-9999.,-9999.,0.26998978672745461,2,139.97277315326127,2.8709810410295380,8.0082958697937947,1.2517602756494957,1.0034661123274382,0.73488258472633394,0.59347779694747604,267.03148137078466,7.1152659238772245E-002,105.53684722245768,192.95501597369986,230.91787272179852,289.08177493608684,94.222867416666674,83.366666666666660,13.542000000000030,2.5731256750150671,14.588053120931022,0.20157225284297184
20240628143000,434.66968522865028,13.832698817370391,0.72992964473129851,0,-53.853519731577869,0,-9999.,-9999.,0.13547153691130093,1,134.65143143430936,3.6377514519145877,9.7649544786773887,1.6406670813826212,1.2701696123074151,0.92038649689337926,0.80068431840697429,796.92827548854268,2.3841543316244350E-002,112.00767109388391,204.78574577409094,245.07623468231404,306.80636401830310,94.156319610286971,84.739999999999995,13.446666666666658,2.3460591021429695,14.526138947737650,0.13845023426418424
20240628150000,435.18858130043566,13.981839464446617,0.83122591670871815,0,-61.720298483046321,0,-9999.,-9999.,1.1746543475580453,1,135.82381065951193,3.9044685400093893,11.395512024425758,1.8292924706555358,1.3979339087305467,1.0150153893821023,0.85439596911290649,844.39590982399352,2.2501293266520409E-002,109.09482522327555,199.46013451807681,238.70283818895896,298.82762790336318,94.076862840277784,87.193333333333328,13.160666666666657,1.9324863829318930,14.208360221862790,0.17508348029185494
20240628153000,436.36929250539765,14.166888128721233,0.76123997984362068,0,-52.255205342196049,0,-9999.,-9999.,0.54058839275506554,1,127.60494657920682,3.8646586517196124,10.086354807955425,1.5842640110035064,1.2164285281228802,0.94731350142880844,0.81739614472310251,873.06229214417226,2.1762479230820399E-002,111.27714797064864,203.45011651641659,243.47782758535010,304.80534800679038,94.037078085720481,90.116666666666660,12.850999999999999,1.4614649148847183,13.598684870755164,0.31141340237611398
20240628160000,436.77199732988362,14.377522579460830,0.85789694655681870,0,-69.983010962132681,0,-9999.,-9999.,1.6013357958480321,1,128.31356104612627,3.4063413847135902,9.2420662598340826,1.5500367537581177,1.1540476559999944,0.94150328741925204,0.86769702763812662,779.66446291254670,2.4369457508711910E-002,117.29835321957547,214.45880007637396,256.65241014960583,321.29836202439935,94.007987959816731,92.266666666666666,12.711666666666645,1.1331494552430468,13.319760812326422,0.20763000454427596
20240628163000,435.99353264730723,14.757469657836117,0.74679252128091844,0,-34.282544184319072,0,-9999.,-9999.,0.62668863071669245,0,135.93522474806957,3.7040504351624288,10.469254732355983,1.5551941024646909,1.2273659062323621,0.95135787758294277,0.80979822714768157,1293.8515215981183,1.4684838007170940E-002,110.07310620698418,201.24874416301319,240.84334711667037,301.50729107882830,94.008320765625001,93.926666666666662,12.837666666666678,0.89729011051366114,13.544057078679430,0.18606623260025187
20240628170000,435.37372702817265,15.124066855528929,1.0349013505293267,0,-30.515836693448183,0,-9999.,-9999.,0.34456516435918255,2,127.90241778693461,3.6895913272558261,10.758665132991215,1.8377944924442926,1.2535254525361723,0.97910255003258906,0.95357352610294899,2373.0891552904372,8.0064417123319707E-003,122.59583126417266,224.14427948586368,268.24345529680733,335.80897510524215,93.984478923177093,95.883333333333326,12.893666666666661,0.61044112619561475,13.534848218211437,0.17768490490435659
20240628173000,433.00821640064777,15.617009252140436,0.98809045774811921,0,4.8889986464323645,2,-9999.,-9999.,-0.66699983092143578,2,130.84473173101608,4.1989727465865192,13.116638458004415,1.8878662671124133,1.3716947611676515,1.0360570968871674,0.93262032464206068,-13853.169909815066,-1.3715272478206141E-003,115.10968050681953,210.45720831609674,251.86352683335016,315.30324838201426,93.935253133897589,96.870000000000005,13.219666666666683,0.47413061034569637,13.960910794717336,0.33765606199507708
20240628180000,430.04233469733828,16.190462842933137,1.3287211229961371,0,-24.677015975164057,0,-9999.,-9999.,1.6115510009165090,1,132.53328708757309,4.3148229238517031,13.106860398733435,2.1985118869609033,1.5250006151750097,1.1015243225459486,1.0830203486119450,4296.6171226705501,4.4220835735511391E-003,123.52899841245328,225.85040665131780,270.28525376289770,338.36506449616724,93.876752478081585,96.716666666666669,13.788000000000011,0.51611615904933617,14.587565608224793,0.33171400488942715
20240628183000,429.87946651817674,16.447048305861728,0.75168422033888405,0,-13.267817838372313,0,-9999.,-9999.,0.11925655553059315,2,143.08926033689070,2.8545139568711724,10.575667150631938,1.5533658996350803,1.1878903654334767,0.91778683861748556,0.81501530534484357,3405.3811346791226,5.5794048444419734E-003,113.86599645303505,208.18335721309398,249.14230781273096,311.89660507979499,93.857731451388887,96.863333333333330,14.003666666666675,0.50001549025490022,14.651221743760289,0.19049218791842495
20240628190000,429.46948148908859,16.637028301764392,0.74652842491959337,0,7.2918661674995464,1,-9999.,-9999.,0.50553949963714440,0,145.93332048530192,3.2196520966985362,22.594679575053522,1.5440461093020661,1.2566345567271517,0.96406973216052572,0.81254059439598980,-6139.1354520028435,-3.0948983205446954E-003,109.20542047960713,199.66233791919879,238.94482401663277,299.13056544452786,93.835670721947679,97.063333333333333,14.145333333333326,0.47245412946668242,14.695297403802499,0.99921947330254146
20240628193000,429.57036042396896,16.777553116116405,0.60878808470629275,0,14.106402870227171,1,-9999.,-9999.,0.29963991801572470,0,149.53819934552027,3.3251587295869500,9.7888338570729534,1.5357711429457794,1.3462933844775855,0.95454948184417676,0.73399560624232474,-2338.8959656491043,-8.1234908602388425E-003,101.47776908073224,185.53372655405096,222.03648471024408,277.96333104946132,93.812846551215273,97.239999999999995,14.243333333333339,0.44686006823443225,14.892404544427279,0.28549961336461721
20240628200000,428.51820150401971,17.003431726564582,0.89053224658227403,0,-10.703534409984742,0,-9999.,-9999.,0.43597535828457201,0,149.52736040920081,3.4081455671175256,10.213573220032695,1.6709725201551633,1.3044791632408343,1.0471379544504615,0.88815136100447167,5460.7083583523072,3.4794020762780645E-003,109.75930978013250,200.67502421449106,240.15675086840881,300.64775405047959,93.797590568142368,97.293333333333337,14.439000000000021,0.44380933762538688,14.995975076604736,0.25579930261261413
20240628203000,427.00922342170639,17.226872906370591,0.93335803497581038,0,120.99503674440042,0,-9999.,-9999.,0.67590718218514068,0,152.31134296559802,3.5579457041109852,23.655877011659726,1.7985047590283039,1.4297913788684038,0.98157883503485244,0.90968787520063210,-519.03285384639116,-3.6606545923243403E-002,117.82262015680530,215.41732724399375,257.79952235799215,322.73441038801252,93.782832154807480,97.269999999999996,14.642333333333340,0.45355504701424254,15.467687551322172,1.9739925641941898
20240628213000,425.57991773851830,17.756387742208776,0.43619399586857366,0,0.24053333482028330,2,-9999.,-9999.,-0.24190075653149837,0,158.04334013731491,3.2346241889420728,11.691859772750346,1.3899495516101699,1.1679691900034921,0.85599850046074433,0.62242457756221625,-83630.022891931643,-2.2719113714164796E-004,97.038904114313368,177.41806569206727,212.32411142715583,265.80459221117502,93.767171020351839,97.716666666666669,15.038333333333355,0.38915497395632659,15.961214031238683,0.33301801881493770
20240628220000,425.28019179415827,18.028477361826074,1.0385826693288205,0,173.16710306296406,0,2.8098726706792054,2,0.85282233614328662,0,161.07712287601146,2.6326681580508526,21.260476233072477,1.7590105089151939,1.1169558892824127,0.88422105177467480,0.96085064406687071,-427.34943323909806,-4.4460103424004485E-002,133.82305126265996,244.67121838126184,292.80895850125250,366.56207006855277,93.761423252095668,97.923333333333332,15.240999999999985,0.35857526055873223,16.041634412407802,2.3064719685674495
20240628223000,425.05895937275847,18.320710597175690,0.41081121892905231,0,30.307623939054324,1,1.1372945292103189,2,0.69484785113494263,1,159.79126971830459,2.5626826219177792,8.1732083170857308,1.1456311862747122,1.0460394787638057,0.74842262938454984,0.60462471350880898,-608.35974162930643,-3.1231520923975478E-002,105.56649129420481,193.00921479134539,230.98273486394902,289.16297464123744,93.746146152085302,98.063333333333333,15.466666666666640,0.33928170586090117,16.441580125558062,0.71111972212474839
20240628230000,425.17013133098334,18.608357062064844,0.31796110331561772,0,3.4300782428298544,1,8.9473340731779274,2,0.28420682686724075,0,156.70153822421693,2.4545945977893875,6.4584237521781249,0.98400419288660712,0.86744427787348644,0.71513511599761204,0.53219583809561266,-3665.4728193423543,-5.1835059039965570E-003,98.855672667947417,180.73969803672176,216.29925698696900,270.78100274412907,93.728334407118069,98.280000000000001,15.672333333333313,0.30532242894940964,16.346105765448726,0.24405893944982507
20240628233000,425.01810041850564,18.913920530965157,0.29905409617516887,0,-5.8543147965575715,1,-0.50947029675178890,2,-0.74645747705755128,1,163.73762096083271,2.1918690281133282,6.1586453930058624,0.92294607590068622,0.87925429149238765,0.70762873123886760,0.51633700647577740,1961.6135831471802,9.6859035659391784E-003,97.309924488698783,177.91357737395890,212.91711235493065,266.54695900469920,93.741817713541664,98.390000000000001,15.911666666666690,0.29020595856723730,16.820054649776921,0.19253770106124463